Regional Weather Roundup
Issued by NWS San Diego, CA

Home | Current Version | Previous Version | Text Only | Print | Product List | Glossary On
Versions: 1 2 3 4 5 6 7 8 9 10 11 12 13 14 15 16 17 18 19 20 21 22 23 24 25 26 27 28 29 30 31 32 33 34 35 36 37 38 39 40 41 42 43 44 45 46 47 48 49 50
000
ASUS46 KSGX 291611
RWRSGX

SAN DIEGO HOURLY WEATHER ROUNDUP
NATIONAL WEATHER SERVICE SAN DIEGO CA
900 AM PDT WED JUL 29 2015

NOTE: "FAIR" INDICATES FEW OR NO CLOUDS BELOW 12,000 FEET WITH NO
SIGNIFICANT WEATHER AND/OR OBSTRUCTIONS TO VISIBILITY.

CAZ042-043-060-061-PZZ750-775-291700-

GREATER SAN DIEGO AREA

CITY           SKY/WX    TMP DP  RH WIND       PRES   REMARKS
LINDBERGH FLD  CLOUDY    71  62  73 SW6       29.96R
POINT LOMA       N/A     71  63  75 W3          N/A
NATIONAL CITY    N/A     71  65  80 SW2       29.95S
CHULA VISTA      N/A     71  66  83 W1        29.88R
IMPERIAL BEACH CLOUDY    69  62  78 SW8       29.95S
BROWN FIELD    CLOUDY    72  63  73 VRB3      29.95S
MIRAMAR MCAS   PTSUNNY   74  62  66 CALM      29.95R
MONTGOMERY FLD PTSUNNY   71  62  73 CALM      29.95S

$$

NORTH SAN DIEGO COUNTY

CITY           SKY/WX    TMP DP  RH WIND       PRES   REMARKS
CAMP PENDLETON CLOUDY    71  62  73 CALM      29.95R
OCEANSIDE AP   CLOUDY    71  63  75 CALM      29.94R
OCEANSIDE HBR    N/A     70  66  86 S3        29.97R
VISTA            N/A     67  62  84 CALM      29.93R
CARLSBAD       CLOUDY    70  63  78 CALM      29.94R
DEL MAR          N/A     69  65  86 CALM      29.96S
FALLBROOK        N/A     66  66 100 CALM      29.95S
ESCONDIDO        N/A     71  65  80 SW3       29.96R
POWAY            N/A     73  64  72 CALM      29.95S

$$

EAST SAN DIEGO COUNTY

CITY           SKY/WX    TMP DP  RH WIND       PRES   REMARKS
RAMONA         SUNNY     71  61  70 NW3       29.97R
SANTEE LAKES     N/A     71  65  80 CALM      29.93S
LA MESA          N/A     69  64  83 CALM      29.88R
JAMUL            N/A     71  64  78 CALM      29.93S
DESCANSO N       N/A     85  56  37 E16       29.76R
CAMPO            N/A     88  56  33 E22       29.96S

$$

ORANGE COUNTY AND THE LOS ANGELES BASIN

CITY           SKY/WX    TMP DP  RH WIND       PRES   REMARKS
JOHN WAYNE AP  CLOUDY    71  64  78 CALM      29.94R
LAKE FOREST FR   N/A     69  62  78 CALM      29.85R
SANTA ANA        N/A     73  67  81 CALM      29.89R
HUNTINGTON BCH   N/A     71  66  84 W6        29.96R
LOS ALAMITOS   CLOUDY    72  65  79 CALM      29.94R HAZE
FULLERTON      CLOUDY    72  63  73 CALM      29.93S HAZE
LONG BEACH     CLOUDY    72  64  76 CALM      29.95R HAZE
L.A. AP        CLOUDY    67  63  87 VRB3      29.95S
L.A. DOWNTOWN  CLOUDY    68  62  81 CALM      29.94S

$$

THE INLAND EMPIRE

CITY           SKY/WX    TMP DP  RH WIND       PRES   REMARKS
CORONA         SUNNY     72  65  78 CALM      29.96R
CHINO          MOSUNNY   73  64  73 VRB3      29.96R
ONTARIO        MOSUNNY   72  62  71 VRB3      29.95R HAZE
SAN BERNARDINO MOSUNNY   73  59  60 CALM      29.95F HAZE
RIVERSIDE AP   SUNNY     72  63  73 VRB3      29.95S
MORENO VALLEY    N/A     77  69  74 W1        29.93R
MARCH ARB      SUNNY     76  64  66 NW6       29.96S
HORSETHIEF CYN   N/A     74  60  63 N3        29.94S
PERRIS           N/A     74  65  71 W2        29.96S
MENIFEE          N/A     76  66  70 E2        30.02R
HEMET EAST       N/A     75  58  56 CALM      29.93R
FRENCH VALLEY  FAIR      73  61  64 CALM      29.96S
TEMECULA         N/A     68  64  87 CALM      29.93R

$$

SAN BERNARDINO AND RIVERSIDE COUNTY MOUNTAINS

CITY           SKY/WX    TMP DP  RH WIND       PRES   REMARKS
BIG BEAR AP    PTSUNNY   70  48  46 E7        30.33R
ANGELUS OAKS     N/A     70  58  65 CALM      29.81S
PINE COVE        N/A     74  54  49 SE6       29.84S

$$

SOUTHERN DESERT INCLUDING THE COACHELLA VALLEY

CITY           SKY/WX    TMP DP  RH WIND       PRES   REMARKS
PALM SPRINGS   SUNNY     91  66  43 E10       29.96R
THOUSAND PALMS   N/A     90  69  50 E10       29.91R HX  95
PALM DESERT      N/A     92  71  49 CALM      28.41  HX  99
THERMAL        SUNNY     90  71  53 S8        29.90R HX  96
BLYTHE         MOSUNNY   93  67  42 S10       29.92R HX  96
IMPERIAL AP    PTSUNNY   89  72  56 S7        29.89R HX  96
EL CENTRO NAS  PTSUNNY   90  73  57 SE10      29.91R HX  98
YUMA AZ        CLOUDY    90  69  50 S8        29.90R
MEXICALI       PTSUNNY   91  68  46 SE13      29.90  HX  95

$$

UPPER DESERT

CITY           SKY/WX    TMP DP  RH WIND       PRES   REMARKS
VICTORVILLE AP SUNNY     82  37  20 CALM      30.05R
HESPERIA         N/A     82  43  24 CALM      29.99S
APPLE VALLEY     N/A     82  43  25 CALM      30.06S
PALMDALE       SUNNY     81  39  22 N6        30.03R
LANCASTER      SUNNY     80  37  21 CALM      30.03R
EDWARDS AFB    MOSUNNY   78  39  24 N2        30.01R
DAGGETT        SUNNY     85  35  16 W6        30.00R
29 PALMS N     SUNNY     87  55  33 SE6       30.07R
NEEDLES        MOSUNNY   98  58  26 SW12      29.94R HX  97

$$

REGIONAL REPORTS

CITY           SKY/WX    TMP DP  RH WIND       PRES   REMARKS
SANTA BARBARA  CLOUDY    63  60  90 W5        29.94S FOG
SANDBERG       SUNNY     86  13   6 E6        30.16R
LAS VEGAS NV   MOSUNNY   90  29  11 NE5       30.00R
PHOENIX AZ     CLOUDY    90  62  39 SE6       29.97R
TIJUANA        MOSUNNY   70  59  68 N6        29.97S
ENSENADA NW      N/A     69  32  25 W1        29.93R

$$

OFFSHORE ISLANDS

CITY           SKY/WX    TMP DP  RH WIND       PRES   REMARKS
CATALINA ARPT  CLOUDY    62  61  96 VRB3      29.99R FOG
SAN CLEMENTE I PTSUNNY   66  58  75 CALM      29.97R
SAN NICOLAS IS CLOUDY    65  55  70 NW10      29.96R

$$

MARINE AND OFFSHORE BUOY REPORTS

STATION/POSITION SKY/WX   TEMP    WIND        PRES    SWELL
                          AIR SEA DIR/SP/G            HT/PER/DIR
                          (F)     (DEG/KT/KT) (MB)    (FT/S/D)
TANNER BANKS               64 68  330/  6/  8 1014.5R   5/200/16
S CLEMENTE BASIN           68 70   CALM  /  2 1014.0R   3/230/16
SAN NICOLAS IS.               65                N/A     3/220/15
SO. S. ROSA ISLA           62 67  310/  8/ 10 1013.4R   5/10
W. S. BARBARA CH           59 61  320/ 10/ 10 1013.5R   5/220/16
M. S. BARBARA CH           62 66  220/  4/  6 1014.6R
S. MONICA BASIN            66 71  350/  6/  8 1014.0R   3/240/16
S PEDRO CHANNEL               71                N/A     2/240/17
DANA POINT                    72                N/A     2/200/15
OCEANSIDE OFFSHR              72                N/A     3/210/17
TORREY PINES OTR              72                N/A     3/210/15
LA JOLLA 1                 69 72  260/  3/  3 1013.6R
MISSION BAY BUOY              71                N/A     3/230/15
SAN DIEGO BAY                 74              1014.3R
POINT LOMA SOUTH              72                N/A     3/200/15

$$




USA.gov is the U.S. government's official web portal to all federal, state and local government web resources and services.